STARLINK-37802, 69318

Orbit data source: Space-Track

STARLINK-37802, 69318 is a payload satellite owned by SpaceX/Seattle (US) in SSO that was launched on Sat, 30 May 2026 UTC via an FALCON 9 launch vehicle from the Air Force Western Test Range (AFWTR). Payload-class satellites include a variety of spacecraft equipped with specific instruments for various scientific and technological missions. These include communications satellites like Starlink; space stations such as the ISS; scientific satellites like the Hubble; Earth observation satellites from companies like Planet Labs, Umbra, and HawkEye 360; GPS; miniature CubeSats for education and research; and military/defense satellites.

Loading next visibility...
Identifier
69318, 2026-119Y
Orbit
SSO
Country
Flag of USUS
Related business
Manufacturer
SpaceX/Seattle
Mission
Operational Commercial Communications
Bus & Motor
STARLINK V2MO, Unknown motor
Mass
575 kg wet, ~530 kg dry
Launch date (UTC)
2026-05-30 (3 months ago)
Launch vehicle
FALCON 9
Launch site
Air Force Western Test Range (AFWTR)
Object type
Payload
Rocket body
Debris
Shape & HBR
Box + 1 Pan, 17.7 m
Radar Cross Section
41.120 m², Large (>1 m²)

Expand to show TLE details & history
Last TLE update: 8 hours ago

TLE from 8 hours ago
0 STARLINK-37802
1 69318U 26119Y   26237.49910483  .00013138  00000-0  40839-3 0  9997
2 69318  97.2849 262.6843 0001139  83.4042 276.7330 15.33458284 14684
Epoch: 2026-08-25T11:58Z
TLE epoch observation values (Epoch: 2026-08-25T11:58:42.657Z)
Latitude
-0.00005°
Longitude
109.24099°
Altitude
468.524 km
Speed
7.632 km/s
True Right ascension
17h 30m 44s
True Declination
0° 00' 00"
Sunlit
Object was in daylight at epoch
Visualization orbit readout
Latitude
Unknown
Longitude
Unknown
Altitude
Unknown
Speed
Unknown
Apparent Right ascension
Unknown
Apparent Declination
Unknown
Sunlit
N/A
Visualization observer readout
Local Sidereal Time
11:32:30
Azimuth
Unknown
Elevation
Unknown
Doppler factor
Unknown
Orbital elements
Apogee altitude
463.226 km
Perigee altitude
461.667 km
Semi-major axis
6,840.583 km
Eccentricity
0.00011
Inclination
97.2849°
RAAN
262.6843°
Arg. of periapsis
83.4042°
True anomaly
276.72004°
Mean anomaly
276.733°
Eccentric anomaly
276.72652°
Mean motion
3.83622 °/min
Orbital period
93.84 mins
BSTAR
0.00040839
Loading maneuver chart data...
Computing Atmospheric mass density...
Loading historical data...
Loading historical data...
Loading historical data...
Loading historical data...
Loading historical data...
Loading historical data...
Loading historical data...

Documentation

Showing up to 5 results
|